Flag for U.S.A. Weather past 2 weeks in Urbana, Illinois, U.S.A.

Now
59 °F

Sunny.


Feels Like: 59 °F
Forecast: 46 / 72 °F
Wind: 5 mph from Northwest

Location: University Of Illinois-Willard Airport

Current Time: Sep 22, 2014 at 7:50:37 PM

Latest Report: Sep 22, 2014 at 6:53 PM


Visibility: 10 mi

Pressure: 30.25 "Hg

Humidity: 64%

Dew point: 47 °F

Location of UrbanaLocation

Historic Weather in Urbana — Graph

°F

Urbana temperature yesterday

Maximum temperature yesterday: 71 °F (at 11:53 AM)
Minimum temperature yesterday: 53 °F (at 11:53 PM)
Average temperature yesterday: 64 °F

Past Weeks' High & Low Weather Summary

 TemperatureHumidityPressure
High83 °F (Sep 20, 1:53 PM)100% (Sep 8, 5:53 PM)30.38 "Hg (Sep 8, 5:53 PM)
Low32 °F (Sep 8, 5:53 PM)34% (Sep 19, 1:53 PM)29.64 "Hg (Sep 10, 4:53 PM)
Average60 °F78%30.09 "Hg
* Reported Sep 7 6:53 PM — Sep 22 6:53 PM, Urbana, Weather by CustomWeather, © 2014

Note: Actual official high and low records may vary slightly from our data, if they occured in-between our weather recording intervals... More about our weather records

Advertising

Urbana weather history for previous 24 hours

 ConditionsComfort  
Time TempWeatherWind HumidityBarometerVisibility
6:53 PM
Sep 22
59 °FSunny.5 mph64%30.25 "Hg10 mi
5:53 PM65 °FSunny.7 mph51%30.24 "Hg10 mi
4:53 PM69 °FSunny.No wind39%30.24 "Hg10 mi
3:53 PM69 °FSunny.7 mph41%30.24 "Hg10 mi
2:53 PM67 °FSunny.No wind42%30.26 "Hg10 mi
1:53 PM67 °FSunny.9 mph45%30.27 "Hg10 mi
12:53 PM65 °FSunny.5 mph51%30.29 "Hg10 mi
11:53 AM63 °FSunny.8 mph58%30.29 "Hg10 mi
10:53 AM59 °FPassing clouds.5 mph64%30.29 "Hg10 mi
9:53 AM58 °FPassing clouds.6 mph70%30.30 "Hg10 mi
8:53 AM55 °FPassing clouds.6 mph80%30.29 "Hg10 mi
7:53 AM49 °FPassing clouds.7 mph90%30.27 "Hg10 mi
6:53 AM44 °FClear.5 mph93%30.24 "Hg10 mi
5:53 AM45 °FClear.7 mph93%30.22 "Hg10 mi
4:53 AM45 °FClear.6 mph97%30.20 "Hg10 mi
3:53 AM46 °FClear.5 mph93%30.18 "Hg10 mi
2:53 AM47 °FClear.7 mph97%30.17 "Hg10 mi
1:53 AM48 °FClear.5 mph96%30.16 "Hg10 mi
12:53 AM50 °FClear.3 mph93%30.15 "Hg10 mi
11:53 PM
Sep 21
53 °FClear.7 mph89%30.13 "Hg10 mi
10:53 PM54 °FClear.8 mph90%30.13 "Hg10 mi
9:53 PM55 °FClear.8 mph87%30.11 "Hg10 mi
8:53 PM56 °FClear.8 mph84%30.10 "Hg10 mi
7:53 PM58 °FClear.9 mph78%30.08 "Hg10 mi
Weather by CustomWeather, © 2014

See weather overviewHow to use our weather pages